Kuchera_Ratio
0.0 0.0 0.0 0.0 0.0 0.0 0.0 0.0 0.0 0.0 0.0 0.0 0.0 0.0 0.0 0.0 0.0 0.0 0.0 0.0 0.0 0.0 0.0 0.0 0.0 0.0 0.0 0.0 0.0 0.0 0.0 0.0 0.0 0.0 0.0 0.0 0.0 0.0 0.0 0.0 0.0 0.0 2.3 3.3
0.0 0.0 0.0 0.0 0.0 0.0 0.0 0.0 0.0 0.0 0.0 0.0 0.0 0.0 0.0 0.0 0.0 0.0 0.0 0.0 0.0 0.0 0.0 0.0 0.0 0.0 0.0 0.0 0.0 0.0 0.0 0.0 0.0 0.0 0.0 0.0 0.0 0.0 0.0 0.0 0.0 1.1 3.3 3.7
0.0 0.0 0.0 0.0 0.0 0.0 0.0 0.0 0.0 0.0 0.0 0.0 0.0 0.0 0.0 0.0 0.0 0.0 0.0 0.0 0.0 0.0 0.0 0.0 0.0 0.0 0.0 0.0 0.0 0.0 0.0 0.0 0.0 0.0 0.0 0.1 0.0 0.0 0.0 0.0 0.0 0.5 0.7 1.3
0.0 0.0 6.5 0.0 0.0 0.0 0.0 0.0 0.0 0.0 0.0 0.0 0.0 0.0 0.0 0.0 0.0 0.0 0.0 0.0 0.0 0.0 0.0 0.0 0.0 0.0 0.0 0.0 0.0 0.0 0.0 0.0 0.0 0.0 0.7 0.7 0.9 0.9 0.0 0.0 0.0 0.0 0.0 0.0
1.5 0.0 0.0 0.0 0.0 0.0 0.0 0.0 0.0 0.0 0.0 0.0 0.0 0.0 0.0 0.0 0.0 0.0 0.0 0.0 0.0 0.0 0.0 0.0 0.0 0.0 0.0 0.0 0.0 0.0 0.0 0.0 0.0 0.0 1.1 1.9 2.5 1.3 0.0 0.0 0.0 0.0 0.0 0.0
3.1 6.5 3.1 0.0 0.0 0.0 0.0 0.0 0.0 0.0 0.0 0.0 0.0 0.0 0.0 0.0 0.0 0.0 0.0 0.0 0.0 0.0 0.0 0.0 0.0 0.0 0.0 0.0 0.0 0.1 0.1 0.5 0.0 0.0 0.5 2.3 1.5 0.7 0.0 0.0 0.0 0.0 0.0 0.0
0.0 1.9 0.0 0.0 0.0 0.0 0.0 0.0 0.0 0.0 0.0 0.0 0.0 0.0 0.0 0.0 0.0 0.0 0.0 0.0 0.0 0.0 0.0 0.0 0.0 0.0 0.0 0.0 2.1 0.1 0.0 0.5 0.9 0.0 0.0 0.0 0.0 0.0 0.0 0.0 0.0 0.0 0.0 0.0
0.0 0.0 2.9 0.0 0.0 0.0 0.0 0.0 0.0 0.0 0.0 0.0 0.0 0.0 0.0 0.0 0.0 0.0 0.0 0.0 0.0 0.0 0.0 0.0 0.0 0.0 0.0 3.5 0.7 0.3 1.5 3.3 3.9 1.9 0.0 0.0 0.0 0.0 0.0 0.5 1.5 2.5 2.7 2.7
0.0 0.0 0.0 0.0 0.0 0.0 0.0 0.0 0.0 0.0 0.0 0.0 0.0 0.0 0.0 0.0 0.0 0.0 0.0 0.0 0.0 0.0 0.0 0.0 0.0 0.0 4.1 5.1 2.5 4.1 4.7 7.5 4.5 1.7 0.0 0.0 1.1 1.7 3.5 4.3 5.9 6.7 8.1 8.1
0.0 0.0 0.0 0.0 0.0 0.0 0.0 0.0 0.0 0.0 0.0 0.0 0.0 0.0 0.0 0.0 0.0 0.0 0.0 0.0 0.0 0.0 0.0 1.9 1.3 4.3 7.1 9.1 7.9 7.7 7.1 4.3 0.1 0.7 0.3 0.0 1.3 3.3 5.9 9.9 11.3 11.1 12.3 12.4
0.0 0.0 0.0 0.0 0.0 0.0 0.0 0.0 0.0 0.0 0.0 0.0 0.0 0.0 0.0 0.0 0.0 0.0 0.0 0.0 0.0 0.0 3.7 9.9 8.1 9.7 8.3 7.3 4.1 1.7 0.7 1.7 0.7 0.1 0.9 0.5 0.9 5.7 7.5 9.3 12.3 13.0 13.4 13.0
0.0 0.0 0.0 0.0 0.0 0.0 0.0 0.0 0.0 0.0 0.0 0.0 0.0 0.0 0.0 0.0 0.0 0.0 0.0 0.0 0.3 5.1 10.7 11.3 10.5 10.3 7.9 1.9 0.0 0.5 1.5 1.5 4.1 1.5 1.7 2.3 2.7 3.5 10.1 9.9 11.3 10.5 11.9 13.0
0.0 0.0 0.0 0.0 0.0 0.0 0.0 0.0 0.0 0.0 0.0 0.0 0.0 0.0 0.0 0.0 0.0 0.0 0.0 2.5 9.5 11.3 11.3 10.5 9.9 8.9 3.1 1.1 1.5 3.7 3.9 2.5 2.5 3.9 3.7 5.3 5.5 6.9 9.9 6.7 6.3 7.7 10.5 11.5
0.0 0.0 0.0 0.0 0.0 0.0 0.0 0.0 0.0 0.0 0.0 0.0 0.0 0.0 0.0 0.3 0.7 2.5 8.1 9.3 10.5 11.9 11.7 10.1 8.9 6.1 2.9 1.5 1.9 2.7 2.1 8.7 3.3 5.1 5.9 5.7 6.1 7.1 7.5 9.7 10.3 8.5 6.9 10.1
0.0 0.0 0.0 0.0 0.0 0.0 0.0 0.0 0.0 0.0 0.0 0.0 0.0 0.0 2.3 7.5 8.9 9.7 11.9 11.7 11.5 12.5 12.3 10.1 7.1 5.1 2.1 2.1 2.9 3.5 4.3 3.9 2.9 3.9 4.9 5.3 4.7 5.7 6.3 7.1 7.9 7.9 7.3 10.5
0.0 0.0 0.0 0.0 0.0 0.0 0.0 0.0 0.0 0.0 2.3 2.7 3.1 6.5 7.9 7.9 11.1 12.8 12.5 11.9 11.1 10.3 10.3 10.9 8.3 4.5 2.7 1.3 1.9 2.3 4.9 11.3 7.5 3.9 4.7 5.5 5.9 7.3 7.7 8.3 8.7 8.9 10.1 12.9
3.1 0.0 0.0 0.0 0.0 0.0 0.0 0.0 0.0 1.7 2.9 3.9 8.1 8.7 9.9 12.4 12.9 12.9 12.6 10.7 9.7 8.5 8.3 9.5 11.9 10.5 4.7 2.7 1.9 2.1 2.3 4.7 9.7 4.3 5.9 6.9 7.3 8.5 8.5 9.5 10.5 10.7 10.9 12.4
0.0 0.0 0.0 0.0 0.0 0.0 0.0 0.0 0.0 3.3 6.9 7.3 8.7 10.3 12.5 12.7 12.1 13.2 12.4 8.9 10.1 10.1 7.1 8.3 8.7 9.5 5.7 3.9 3.1 3.3 3.5 4.5 5.3 6.7 6.9 9.3 9.3 8.1 10.1 10.7 11.3 12.2 11.9 11.7
0.0 2.3 0.0 0.0 0.0 0.0 0.0 5.5 6.7 7.3 8.3 8.9 11.1 12.2 11.5 10.1 12.1 12.1 10.5 12.8 13.1 12.4 11.7 8.1 11.9 6.9 5.5 10.3 5.1 2.9 4.3 5.1 5.7 7.3 7.5 9.7 10.3 9.9 11.5 12.3 12.3 12.5 12.6 12.9
4.1 5.4 4.2 3.1 2.9 5.0 7.5 7.7 8.3 9.3 9.3 10.1 10.1 11.3 11.7 12.6 12.2 12.5 12.1 11.5 5.1 2.3 3.7 5.7 5.1 3.5 5.1 9.5 9.5 2.9 3.9 5.7 7.1 9.7 12.2 10.7 12.3 12.5 12.3 13.0 13.1 13.2 13.5 13.4
8.3 7.7 7.5 7.7 8.1 7.7 7.9 8.7 9.5 11.3 10.7 9.7 10.9 12.3 12.6 12.5 12.4 12.2 11.7 7.1 4.7 5.7 3.1 8.7 2.5 2.7 2.7 5.7 4.3 4.1 6.1 8.7 9.5 10.3 12.1 12.5 12.5 12.7 13.0 13.2 13.4 13.8 14.2 14.1
4.7 7.3 8.5 8.7 8.7 10.3 9.3 8.3 7.9 9.9 11.3 11.7 11.7 12.4 13.0 12.6 12.7 11.3 8.7 4.3 3.1 9.5 5.7 3.7 3.1 7.9 5.7 12.3 1.9 6.3 6.5 8.5 9.3 9.7 11.9 12.4 12.9 13.4 13.6 14.0 14.3 14.3 14.5 14.8
0.0 1.1 3.9 5.3 4.7 5.9 4.9 4.7 10.7 10.5 11.9 12.3 13.1 12.2 8.3 5.3 4.7 6.3 8.1 2.5 2.3 7.5 3.5 3.1 11.3 12.6 12.6 8.3 7.9 9.5 10.3 11.9 12.2 12.4 12.7 12.9 13.2 13.5 13.8 14.6 14.4 14.5 15.1 15.5
0.0 0.0 0.0 0.0 0.0 2.1 4.9 5.3 5.3 6.7 9.9 10.9 11.5 10.5 4.1 4.9 4.1 0.0 0.0 4.9 7.3 10.1 6.3 10.5 12.5 13.1 12.9 9.5 10.1 11.1 11.7 12.2 12.3 12.6 13.0 16.3 13.2 13.4 13.6 14.7 15.0 14.7 15.4 15.6
0.0 0.0 0.0 0.0 0.7 0.5 0.0 1.9 1.7 4.1 6.1 4.3 5.7 6.3 1.9 0.0 3.9 0.5 1.7 4.9 9.5 8.3 8.3 12.7 13.6 13.8 11.9 10.5 10.9 11.5 11.3 11.5 12.1 12.4 12.9 13.2 13.5 13.9 13.8 14.0 15.0 15.6 15.5 15.8
0.0 0.0 0.0 0.0 0.0 0.0 0.0 0.0 0.9 1.9 2.9 4.9 4.7 5.5 3.9 0.7 0.5 1.3 5.1 6.3 7.7 7.7 8.5 12.3 13.0 13.3 10.9 10.5 11.1 11.7 11.3 11.1 13.4 13.4 13.2 13.3 13.6 13.7 14.2 14.7 14.8 14.8 15.5 16.2
0.0 0.4 0.0 0.0 0.0 0.0 0.0 0.0 0.0 1.5 2.3 2.9 4.9 5.1 4.9 5.1 4.7 4.3 7.3 8.3 8.3 9.1 9.1 10.7 11.3 12.3 10.3 10.7 11.5 11.5 11.7 11.3 12.4 12.5 13.0 12.8 13.3 13.3 14.1 14.3 14.5 14.8 15.5 16.4